Flag for Sweden Weather past 2 weeks in Borås, Sweden

Now
52 °F

Partly sunny.


Feels Like: 46 °F
Forecast: 52 / 55 °F
Wind: 21 mph from Southwest

Location: Gothenburg / Landvetter

Current Time: Oct 26, 2014 at 9:00:41 AM

Latest Report: Oct 26, 2014 at 8:20 AM


Visibility: N/A

Pressure: 29.95 "Hg

Humidity: 88%

Dew point: 48 °F

Location of BoråsLocation

Historic Weather in Borås — Graph

°F

Borås temperature yesterday

Maximum temperature yesterday: 52 °F (at 4:50 PM)
Minimum temperature yesterday: 45 °F (at 11:20 PM)
Average temperature yesterday: 49 °F

Past Weeks' High & Low Weather Summary

 TemperatureHumidityPressure
High57 °F (Oct 11, 1:50 PM)100% (Oct 11, 8:20 AM)30.12 "Hg (Oct 11, 8:20 AM)
Low39 °F (Oct 13, 8:20 AM)71% (Oct 17, 3:20 PM)29.42 "Hg (Oct 21, 8:20 PM)
Average48 °F93%29.84 "Hg
* Reported Oct 11 8:20 AM — Oct 26 7:50 AM, Borås, Weather by CustomWeather, © 2014

Note: Actual official high and low records may vary slightly from our data, if they occured in-between our weather recording intervals... More about our weather records

Advertising

Borås weather history for previous 24 hours

 ConditionsComfort  
Time TempWeatherWind HumidityBarometerVisibility
7:50 AM
Oct 26
52 °FPartly sunny.20 mph88%29.95 "HgN/A
7:20 AM50 °FPartly sunny.17 mph94%29.95 "HgN/A
6:50 AM50 °FPassing clouds.18 mph94%29.95 "HgN/A
6:20 AM50 °FMostly cloudy.17 mph94%29.95 "HgN/A
5:50 AM50 °FMostly cloudy.14 mph94%29.95 "HgN/A
5:20 AM50 °FPartly cloudy.17 mph94%29.95 "HgN/A
4:50 AM50 °FOvercast.15 mph94%29.95 "HgN/A
4:20 AM50 °FRain. Mostly cloudy.16 mph94%29.98 "HgN/A
3:50 AM50 °FPassing clouds.16 mph94%29.98 "HgN/A
3:20 AM50 °FMostly cloudy.13 mph94%29.98 "HgN/A
2:50 AM50 °FMostly cloudy.15 mph94%29.95 "HgN/A
2:20 AM48 °FPassing clouds.14 mph94%29.98 "HgN/A
2:50 AM50 °FPassing clouds.14 mph94%29.98 "HgN/A
2:20 AM48 °FPartly cloudy.12 mph100%29.98 "HgN/A
1:50 AM48 °FPassing clouds.12 mph94%29.98 "HgN/A
1:20 AM48 °FPassing clouds.14 mph94%29.98 "HgN/A
12:50 AM48 °FPassing clouds.12 mph94%29.98 "HgN/A
12:20 AM48 °FPartly cloudy.12 mph94%29.98 "HgN/A
11:50 PM
Oct 25
46 °FClear.12 mph93%29.98 "Hg10 mi
11:20 PM45 °FClear.10 mph100%29.98 "Hg10 mi
10:50 PM46 °FClear.10 mph93%29.98 "Hg10 mi
10:20 PM46 °FClear.10 mph93%29.98 "Hg10 mi
9:50 PM48 °FClear.9 mph94%29.98 "Hg10 mi
9:20 PM48 °FFog.9 mph100%29.95 "Hg6 mi
8:50 PM50 °FFog.9 mph94%29.95 "Hg4 mi
8:20 PM50 °FFog.9 mph100%29.95 "Hg4 mi
7:50 PM50 °FFog.10 mph100%29.95 "Hg5 mi
7:20 PM50 °FFog.9 mph100%29.95 "Hg4 mi
6:50 PM50 °FFog.9 mph100%29.95 "Hg4 mi
6:20 PM50 °FFog.9 mph100%29.95 "Hg4 mi
5:50 PM50 °FFog.9 mph100%29.92 "Hg4 mi
5:20 PM52 °FFog.9 mph94%29.92 "Hg3 mi
4:50 PM52 °FFog.12 mph94%29.92 "Hg5 mi
4:20 PM50 °FFog.10 mph100%29.92 "Hg3 mi
3:50 PM50 °FDrizzle. Fog.13 mph100%29.92 "Hg3 mi
3:20 PM50 °FFog.12 mph100%29.92 "Hg3 mi
2:50 PM50 °FDrizzle. Partly sunny.13 mph100%29.92 "Hg3 mi
2:20 PM50 °FDrizzle. Partly sunny.13 mph100%29.92 "Hg3 mi
1:50 PM50 °FLight rain. Fog.12 mph100%29.92 "Hg4 mi
1:20 PM50 °FDrizzle. Fog.13 mph100%29.92 "Hg3 mi
12:50 PM50 °FFog.15 mph100%29.92 "Hg5 mi
12:20 PM50 °FDrizzle. Low clouds.15 mph100%29.92 "Hg4 mi
11:50 AM50 °FLight rain. Partly sunny.14 mph100%29.92 "Hg3 mi
11:20 AM50 °FLight rain. Fog.14 mph94%29.92 "Hg3 mi
10:50 AM48 °FDrizzle. Partly sunny.15 mph100%29.92 "Hg3 mi
10:20 AM48 °FLight rain. Fog.15 mph100%29.92 "Hg4 mi
9:50 AM48 °FRain. Partly sunny.18 mph100%29.92 "Hg3 mi
9:20 AM48 °FLight rain. Partly sunny.17 mph100%29.89 "HgN/A
Weather by CustomWeather, © 2014

See weather overviewHow to use our weather pages